,,Stat5,,Stat1,,Stat2,,Stat3,,Stat4,,Wind1,,Wind1
time,status,PA1M_AVG,status,PR1M_SUM,status,RH1M_AVG,status,SR1M_AVG,status,TA1M_AVG,status,W1dAve1m,status,W1sAve1m
2000-06-07, 00:00:00,VALID,918.422,VALID,0.2,VALID,99.531,VALID,0,VALID,18.1677,VALID,314,VALID,1.62435
2000-06-07, 00:01:00,VALID,918.362,VALID,0,VALID,99.4636,VALID,0,VALID,18.0773,VALID,323,VALID,1.85341
2000-06-07, 00:02:00,VALID,918.325,VALID,0,VALID,99.4573,VALID,0,VALID,18.0125,VALID,309,VALID,1.54955
2000-06-07, 00:03:00,VALID,918.297,VALID,0.2,VALID,99.4827,VALID,0.0169808,VALID,17.9968,VALID,322,VALID,1.39453
2000-06-07, 00:04:00,VALID,918.302,VALID,0,VALID,99.5323,VALID,-0.0169808,VALID,17.9869,VALID,323,VALID,1.0944
2000-06-07, 00:05:00,VALID,918.287,VALID,0,VALID,99.5272,VALID,-0.0169808,VALID,17.9456,VALID,305,VALID,1.50493
2000-06-07, 00:06:00,VALID,918.252,VALID,0,VALID,99.5488,VALID,0,VALID,17.929,VALID,292,VALID,1.02486
2000-06-07, 00:07:00,VALID,918.23,VALID,0,VALID,99.5921,VALID,0,VALID,17.929,VALID,284,VALID,1.07504
2000-06-07, 00:08:00,VALID,918.241,VALID,0,VALID,99.5997,VALID,0,VALID,17.9329,VALID,308,VALID,1.09397
2000-06-07, 00:09:00,VALID,918.259,VALID,0,VALID,99.587,VALID,-0.0509425,VALID,17.8879,VALID,305,VALID,1.30068
2000-06-07, 00:10:00,VALID,918.251,VALID,0,VALID,99.5959,VALID,-0.118866,VALID,17.8591,VALID,310,VALID,1.17167
2000-06-07, 00:11:00,VALID,918.241,VALID,0,VALID,99.6137,VALID,-0.101885,VALID,17.8526,VALID,287,VALID,0.691406
2000-06-07, 00:12:00,VALID,918.243,VALID,0,VALID,99.6366,VALID,-0.101885,VALID,17.8625,VALID,267,VALID,1.27175
2000-06-07, 00:13:00,VALID,918.235,VALID,0,VALID,99.6455,VALID,-0.0679233,VALID,17.8563,VALID,269,VALID,1.28754
2000-06-07, 00:14:00,VALID,918.218,VALID,0,VALID,99.6226,VALID,-0.101885,VALID,17.8342,VALID,278,VALID,1.30078
2000-06-07, 00:15:00,VALID,918.207,VALID,0,VALID,99.6315,VALID,-0.101885,VALID,17.8079,VALID,272,VALID,1.16735
2000-06-07, 00:16:00,VALID,918.196,VALID,0,VALID,99.648,VALID,-0.118866,VALID,17.7986,VALID,275,VALID,1.1375
2000-06-07, 00:17:00,VALID,918.205,VALID,0,VALID,99.6378,VALID,-0.118866,VALID,17.7696,VALID,259,VALID,0.845052
2000-06-07, 00:18:00,VALID,918.211,VALID,0,VALID,99.6493,VALID,-0.101885,VALID,17.7599,VALID,250,VALID,0.757161
2000-06-07, 00:19:00,VALID,918.222,VALID,0,VALID,99.6518,VALID,-0.101885,VALID,17.7435,VALID,235,VALID,0.744141
2000-06-07, 00:20:00,VALID,918.223,VALID,0,VALID,99.6824,VALID,-0.101885,VALID,17.7435,VALID,248,VALID,1.00678
2000-06-07, 00:21:00,VALID,918.232,VALID,0,VALID,99.6735,VALID,-0.135847,VALID,17.7375,VALID,238,VALID,1.36068
2000-06-07, 00:22:00,VALID,918.233,VALID,0,VALID,99.6518,VALID,-0.118866,VALID,17.7054,VALID,239,VALID,1.73589
2000-06-07, 00:23:00,VALID,918.248,VALID,0,VALID,99.6862,VALID,-0.101885,VALID,17.6826,VALID,232,VALID,1.2979
2000-06-07, 00:24:00,VALID,918.224,VALID,0,VALID,99.7167,VALID,-0.0509425,VALID,17.7078,VALID,237,VALID,1.40156
2000-06-07, 00:25:00,VALID,918.209,VALID,0,VALID,99.69,VALID,-0.0169808,VALID,17.6907,VALID,229,VALID,1.90921
2000-06-07, 00:26:00,VALID,918.208,VALID,0,VALID,99.6989,VALID,0,VALID,17.6912,VALID,232,VALID,1.61949
2000-06-07, 00:27:00,VALID,918.194,VALID,0,VALID,99.7345,VALID,0,VALID,17.6912,VALID,228,VALID,1.03927
2000-06-07, 00:28:00,VALID,918.157,VALID,0,VALID,99.7777,VALID,0.0169808,VALID,17.7329,VALID,233,VALID,1.08699
2000-06-07, 00:29:00,VALID,918.128,VALID,0,VALID,99.7599,VALID,0.0169808,VALID,17.7362,VALID,234,VALID,1.53728
2000-06-07, 00:30:00,VALID,918.089,VALID,0,VALID,99.7675,VALID,0,VALID,17.7362,VALID,226,VALID,1.34951
2000-06-07, 00:31:00,VALID,918.066,VALID,0,VALID,99.7752,VALID,-0.0169808,VALID,17.7461,VALID,220,VALID,1.08371
2000-06-07, 00:32:00,VALID,918.038,VALID,0,VALID,99.7828,VALID,0,VALID,17.7491,VALID,228,VALID,1.16884
2000-06-07, 00:33:00,VALID,918.016,VALID,0,VALID,99.7561,VALID,0,VALID,17.7523,VALID,203,VALID,1.21962
2000-06-07, 00:34:00,VALID,918.001,VALID,0,VALID,99.7523,VALID,-0.0169808,VALID,17.7267,VALID,229,VALID,1.28689
2000-06-07, 00:35:00,VALID,917.982,VALID,0,VALID,99.7612,VALID,0,VALID,17.7202,VALID,226,VALID,1.71937
2000-06-07, 00:36:00,VALID,917.973,VALID,0,VALID,99.7421,VALID,0,VALID,17.6916,VALID,203,VALID,1.59874
2000-06-07, 00:37:00,VALID,917.977,VALID,0,VALID,99.7396,VALID,-0.0169808,VALID,17.672,VALID,196,VALID,1.38867
2000-06-07, 00:38:00,VALID,917.955,VALID,0,VALID,99.7319,VALID,-0.0169808,VALID,17.669,VALID,205,VALID,1.83594
2000-06-07, 00:39:00,VALID,917.963,VALID,0,VALID,99.7408,VALID,0,VALID,17.6434,VALID,225,VALID,1.47277
2000-06-07, 00:40:00,VALID,917.96,VALID,0,VALID,99.7408,VALID,0,VALID,17.6363,VALID,212,VALID,1.14358
2000-06-07, 00:41:00,VALID,917.953,VALID,0,VALID,99.7383,VALID,-0.0339617,VALID,17.6404,VALID,220,VALID,2.52459
2000-06-07, 00:42:00,VALID,917.912,VALID,0,VALID,99.737,VALID,-0.0339617,VALID,17.601,VALID,229,VALID,2.76605
2000-06-07, 00:43:00,VALID,917.863,VALID,0,VALID,99.7319,VALID,-0.0169808,VALID,17.6141,VALID,219,VALID,2.66246
2000-06-07, 00:44:00,VALID,917.821,VALID,0,VALID,99.7421,VALID,-0.0339617,VALID,17.6008,VALID,214,VALID,2.33661
2000-06-07, 00:45:00,VALID,917.795,VALID,0,VALID,99.7447,VALID,-0.0339617,VALID,17.618,VALID,221,VALID,2.74116
2000-06-07, 00:46:00,VALID,917.761,VALID,0,VALID,99.7218,VALID,0,VALID,17.5915,VALID,218,VALID,2.98616
2000-06-07, 00:47:00,VALID,917.745,VALID,0,VALID,99.7052,VALID,-0.0339617,VALID,17.5915,VALID,211,VALID,2.26411
2000-06-07, 00:48:00,VALID,917.715,VALID,0,VALID,99.7154,VALID,0,VALID,17.595,VALID,226,VALID,1.76107
2000-06-07, 00:49:00,VALID,917.665,VALID,0,VALID,99.69,VALID,-0.0169808,VALID,17.5948,VALID,211,VALID,2.24197
2000-06-07, 00:50:00,VALID,917.635,VALID,0,VALID,99.6798,VALID,-0.0339617,VALID,17.5883,VALID,220,VALID,2.02878
2000-06-07, 00:51:00,VALID,917.615,VALID,0,VALID,99.6468,VALID,-0.0169808,VALID,17.5885,VALID,211,VALID,2.61892
2000-06-07, 00:52:00,VALID,917.601,VALID,0,VALID,99.6493,VALID,-0.0169808,VALID,17.5754,VALID,194,VALID,1.76823
2000-06-07, 00:53:00,VALID,917.566,VALID,0,VALID,99.648,VALID,0,VALID,17.5788,VALID,209,VALID,1.88795
2000-06-07, 00:54:00,VALID,917.561,VALID,0,VALID,99.6302,VALID,-0.0339617,VALID,17.5758,VALID,201,VALID,2.55647
2000-06-07, 00:55:00,VALID,917.532,VALID,0,VALID,99.6226,VALID,-0.0169808,VALID,17.5816,VALID,203,VALID,1.70545
2000-06-07, 00:56:00,VALID,917.547,VALID,0,VALID,99.6099,VALID,0,VALID,17.5848,VALID,221,VALID,2.07031
2000-06-07, 00:57:00,VALID,917.549,VALID,0,VALID,99.5844,VALID,-0.0339617,VALID,17.592,VALID,203,VALID,1.68602
2000-06-07, 00:58:00,VALID,917.539,VALID,0,VALID,99.5552,VALID,-0.0339617,VALID,17.5758,VALID,200,VALID,2.30349
2000-06-07, 00:59:00,VALID,917.511,VALID,0,VALID,99.5501,VALID,0,VALID,17.5722,VALID,209,VALID,2.61205
2000-06-07, 01:00:00,VALID,917.509,VALID,0,VALID,99.5183,VALID,-0.0169808,VALID,17.5786,VALID,223,VALID,1.99424
2000-06-07, 01:01:00,VALID,917.507,VALID,0,VALID,99.517,VALID,-0.0509425,VALID,17.5948,VALID,206,VALID,2.46496
2000-06-07, 01:02:00,VALID,917.487,VALID,0,VALID,99.5069,VALID,-0.0169808,VALID,17.6047,VALID,213,VALID,2.55534
2000-06-07, 01:03:00,VALID,917.474,VALID,0,VALID,99.4916,VALID,0,VALID,17.6178,VALID,225,VALID,2.04123
2000-06-07, 01:04:00,VALID,917.457,VALID,0,VALID,99.4738,VALID,-0.0169808,VALID,17.621,VALID,217,VALID,2.39648
2000-06-07, 01:05:00,VALID,917.437,VALID,0,VALID,99.4128,VALID,-0.0509425,VALID,17.6206,VALID,220,VALID,2.75905
2000-06-07, 01:06:00,VALID,917.427,VALID,0,VALID,99.3873,VALID,-0.0169808,VALID,17.6335,VALID,229,VALID,2.58312
2000-06-07, 01:07:00,VALID,917.411,VALID,0,VALID,99.3772,VALID,0,VALID,17.6529,VALID,227,VALID,2.69227
2000-06-07, 01:08:00,VALID,917.407,VALID,0,VALID,99.3505,VALID,0,VALID,17.6589,VALID,230,VALID,2.67311
2000-06-07, 01:09:00,VALID,917.379,VALID,0,VALID,99.3339,VALID,-0.0509425,VALID,17.6628,VALID,217,VALID,3.17143
2000-06-07, 01:10:00,VALID,917.338,VALID,0,VALID,99.2805,VALID,-0.101885,VALID,17.6669,VALID,224,VALID,2.91364
2000-06-07, 01:11:00,VALID,917.31,VALID,0,VALID,99.2487,VALID,-0.101885,VALID,17.6835,VALID,216,VALID,2.15924
2000-06-07, 01:12:00,VALID,917.299,VALID,0,VALID,99.1953,VALID,-0.118866,VALID,17.6902,VALID,219,VALID,2.89337
2000-06-07, 01:13:00,VALID,917.271,VALID,0,VALID,99.2131,VALID,-0.101885,VALID,17.699,VALID,222,VALID,1.80168
2000-06-07, 01:14:00,VALID,917.262,VALID,0,VALID,99.1597,VALID,-0.118866,VALID,17.7158,VALID,197,VALID,2.43616
2000-06-07, 01:15:00,VALID,917.259,VALID,0,VALID,99.0707,VALID,-0.101885,VALID,17.7218,VALID,189,VALID,1.95991
2000-06-07, 01:16:00,VALID,917.268,VALID,0,VALID,98.9792,VALID,-0.101885,VALID,17.7545,VALID,208,VALID,2.03817
2000-06-07, 01:17:00,VALID,917.261,VALID,0,VALID,98.9499,VALID,-0.118866,VALID,17.7642,VALID,189,VALID,1.27713
2000-06-07, 01:18:00,VALID,917.258,VALID,0,VALID,98.9308,VALID,-0.101885,VALID,17.7866,VALID,194,VALID,1.7296
2000-06-07, 01:19:00,VALID,917.243,VALID,0,VALID,98.8787,VALID,-0.101885,VALID,17.7864,VALID,200,VALID,1.94184
2000-06-07, 01:20:00,VALID,917.236,VALID,0,VALID,98.7706,VALID,-0.118866,VALID,17.7961,VALID,176,VALID,1.38014
2000-06-07, 01:21:00,VALID,917.218,VALID,0,VALID,98.7439,VALID,-0.101885,VALID,17.8064,VALID,180,VALID,1.59071
2000-06-07, 01:22:00,VALID,917.215,VALID,0,VALID,98.7312,VALID,-0.101885,VALID,17.8097,VALID,193,VALID,2.01584
2000-06-07, 01:23:01,VALID,917.157,VALID,0,VALID,98.7426,VALID,-0.118866,VALID,17.8157,VALID,163,VALID,3.05633
2000-06-07, 01:24:00,VALID,917.117,VALID,0,VALID,98.7503,VALID,-0.0679233,VALID,17.8378,VALID,168,VALID,1.37545
2000-06-07, 01:25:01,VALID,917.117,VALID,0,VALID,98.7554,VALID,0,VALID,17.8464,VALID,161,VALID,1.37584
2000-06-07, 01:26:00,VALID,917.109,VALID,0,VALID,98.7401,VALID,-0.0169808,VALID,17.8501,VALID,158,VALID,1.90418
2000-06-07, 01:27:00,VALID,917.123,VALID,0,VALID,98.6994,VALID,-0.0679233,VALID,17.8432,VALID,172,VALID,1.8921
2000-06-07, 01:28:00,VALID,917.132,VALID,0,VALID,98.5595,VALID,-0.0169808,VALID,17.8529,VALID,164,VALID,2.25341
2000-06-07, 01:29:00,VALID,917.113,VALID,0,VALID,98.3942,VALID,0,VALID,17.8595,VALID,156,VALID,2.61205
2000-06-07, 01:30:01,VALID,917.102,VALID,0,VALID,98.2009,VALID,0,VALID,17.8826,VALID,179,VALID,1.68215
2000-06-07, 01:31:00,VALID,917.079,VALID,0,VALID,98.103,VALID,-0.0339617,VALID,17.8916,VALID,199,VALID,1.8308
2000-06-07, 01:32:00,VALID,917.071,VALID,0,VALID,97.9784,VALID,-0.0339617,VALID,17.8856,VALID,185,VALID,1.56532
2000-06-07, 01:33:00,VALID,917.059,VALID,0,VALID,98.0229,VALID,0,VALID,17.8916,VALID,179,VALID,0.991536
2000-06-07, 01:34:00,VALID,917.042,VALID,0,VALID,98.0725,VALID,0,VALID,17.8914,VALID,172,VALID,1.12348
2000-06-07, 01:35:00,VALID,917.025,VALID,0,VALID,98.1615,VALID,0,VALID,17.8951,VALID,200,VALID,0.957031
2000-06-07, 01:36:01,VALID,917.017,VALID,0,VALID,98.178,VALID,-0.0169808,VALID,17.8886,VALID,201,VALID,1.41124
2000-06-07, 01:37:00,VALID,917.014,VALID,0,VALID,98.0725,VALID,0,VALID,17.8589,VALID,176,VALID,1.78277
2000-06-07, 01:38:01,VALID,916.994,VALID,0,VALID,98.0165,VALID,0,VALID,17.8821,VALID,188,VALID,1.65029
2000-06-07, 01:39:00,VALID,916.978,VALID,0,VALID,97.8373,VALID,-0.0509425,VALID,17.8729,VALID,192,VALID,1.77857
2000-06-07, 01:40:01,VALID,916.952,VALID,0,VALID,97.6681,VALID,-0.101885,VALID,17.8602,VALID,187,VALID,1.8921
2000-06-07, 01:41:00,VALID,916.933,VALID,0,VALID,97.7241,VALID,-0.101885,VALID,17.8994,VALID,199,VALID,1.35846
2000-06-07, 01:42:00,VALID,916.922,VALID,0,VALID,97.6681,VALID,-0.101885,VALID,17.8764,VALID,195,VALID,2.05722
2000-06-07, 01:43:00,VALID,916.896,VALID,0,VALID,97.6783,VALID,-0.101885,VALID,17.8994,VALID,211,VALID,1.53345
2000-06-07, 01:44:01,VALID,916.876,VALID,0,VALID,97.6402,VALID,-0.101885,VALID,17.8996,VALID,225,VALID,2.15848
2000-06-07, 01:45:01,VALID,916.878,VALID,0,VALID,97.6681,VALID,-0.101885,VALID,17.9061,VALID,213,VALID,1.62664
2000-06-07, 01:46:00,VALID,916.849,VALID,0,VALID,97.733,VALID,-0.101885,VALID,17.9059,VALID,224,VALID,1.52902
2000-06-07, 01:47:00,VALID,916.823,VALID,0,VALID,97.3858,VALID,-0.0849042,VALID,17.8826,VALID,212,VALID,2.80317
2000-06-07, 01:48:00,VALID,916.813,VALID,0,VALID,97.0565,VALID,-0.118866,VALID,17.8925,VALID,217,VALID,2.01237
2000-06-07, 01:49:00,VALID,916.803,VALID,0,VALID,96.8963,VALID,-0.101885,VALID,17.9153,VALID,211,VALID,2.05903
2000-06-07, 01:50:01,VALID,916.789,VALID,0,VALID,96.6559,VALID,-0.101885,VALID,17.9153,VALID,215,VALID,2.24465
2000-06-07, 01:51:01,VALID,916.776,VALID,0,VALID,96.7246,VALID,-0.101885,VALID,17.9414,VALID,204,VALID,1.63802
2000-06-07, 01:52:00,VALID,916.773,VALID,0,VALID,96.5974,VALID,-0.101885,VALID,17.9345,VALID,197,VALID,2.18403
2000-06-07, 01:53:01,VALID,916.768,VALID,0,VALID,96.3113,VALID,-0.101885,VALID,17.961,VALID,195,VALID,2.00267
2000-06-07, 01:54:00,VALID,916.764,VALID,0,VALID,96.1575,VALID,-0.0509425,VALID,17.9698,VALID,217,VALID,2.64598
2000-06-07, 01:55:01,VALID,916.771,VALID,0,VALID,96.0875,VALID,0,VALID,17.9657,VALID,196,VALID,1.84861
2000-06-07, 01:56:00,VALID,916.787,VALID,0,VALID,96.2923,VALID,-0.0169808,VALID,17.9919,VALID,194,VALID,1.25712
2000-06-07, 01:57:00,VALID,916.786,VALID,0,VALID,96.2172,VALID,-0.0339617,VALID,17.9622,VALID,204,VALID,2.35114
2000-06-07, 01:58:00,VALID,916.379,VALID,0,VALID,95.9833,VALID,-0.0169808,VALID,17.9622,VALID,170,VALID,1.78706
2000-06-07, 01:59:01,VALID,916.803,VALID,0,VALID,96.2745,VALID,-0.0169808,VALID,17.9922,VALID,169,VALID,1.30692
2000-06-07, 02:00:01,VALID,916.808,VALID,0,VALID,96.1829,VALID,-0.0339617,VALID,17.9657,VALID,172,VALID,1.91941
2000-06-07, 02:01:00,VALID,916.804,VALID,0,VALID,96.2083,VALID,-0.0509425,VALID,17.9887,VALID,176,VALID,1.50536
2000-06-07, 02:02:00,VALID,916.806,VALID,0,VALID,96.2554,VALID,-0.0169808,VALID,17.9853,VALID,194,VALID,1.56163
2000-06-07, 02:03:00,VALID,916.786,VALID,0,VALID,96.4436,VALID,-0.0339617,VALID,17.9622,VALID,193,VALID,1.29666
2000-06-07, 02:04:00,VALID,916.77,VALID,0,VALID,96.5402,VALID,-0.0339617,VALID,17.9663,VALID,202,VALID,1.66732
2000-06-07, 02:05:00,VALID,916.747,VALID,0,VALID,96.5924,VALID,0,VALID,17.9431,VALID,195,VALID,1.85403
2000-06-07, 02:06:01,VALID,916.722,VALID,0,VALID,96.7221,VALID,-0.0169808,VALID,17.9495,VALID,187,VALID,1.08355
2000-06-07, 02:07:00,VALID,916.703,VALID,0,VALID,96.9471,VALID,0,VALID,17.9431,VALID,205,VALID,0.871311
2000-06-07, 02:08:01,VALID,916.685,VALID,0,VALID,96.8607,VALID,-0.0169808,VALID,17.9407,VALID,191,VALID,1.5366
2000-06-07, 02:09:00,VALID,916.668,VALID,0,VALID,96.8975,VALID,-0.0509425,VALID,17.9271,VALID,190,VALID,0.895312
2000-06-07, 02:10:01,VALID,916.653,VALID,0,VALID,97.0692,VALID,-0.0169808,VALID,17.9334,VALID,178,VALID,0.910051
2000-06-07, 02:11:00,VALID,916.644,VALID,0,VALID,97.0196,VALID,-0.0509425,VALID,17.9084,VALID,166,VALID,1.45542
2000-06-07, 02:12:00,VALID,916.616,VALID,0,VALID,97.2091,VALID,-0.0679233,VALID,17.9075,VALID,140,VALID,1.31862
2000-06-07, 02:13:00,VALID,916.615,VALID,0,VALID,97.1709,VALID,-0.0679233,VALID,17.9174,VALID,150,VALID,1.61819
2000-06-07, 02:14:01,VALID,916.622,VALID,0,VALID,97.0501,VALID,-0.0679233,VALID,17.9181,VALID,147,VALID,1.10714
2000-06-07, 02:15:01,VALID,916.614,VALID,0,VALID,96.9967,VALID,-0.0509425,VALID,17.8981,VALID,187,VALID,1.13014
2000-06-07, 02:16:00,VALID,916.608,VALID,0,VALID,96.8212,VALID,-0.0509425,VALID,17.8686,VALID,188,VALID,0.845089
2000-06-07, 02:17:00,VALID,916.609,VALID,0,VALID,96.8085,VALID,-0.0509425,VALID,17.8686,VALID,200,VALID,1.19336
2000-06-07, 02:18:00,VALID,916.596,VALID,0,VALID,96.8187,VALID,-0.0509425,VALID,17.8789,VALID,195,VALID,0.8023
2000-06-07, 02:19:00,VALID,916.599,VALID,0,VALID,96.9039,VALID,-0.0339617,VALID,17.8854,VALID,197,VALID,0.835503
2000-06-07, 02:20:01,VALID,916.609,VALID,0,VALID,96.942,VALID,-0.0169808,VALID,17.8755,VALID,192,VALID,0.92722
2000-06-07, 02:21:01,VALID,916.626,VALID,0,VALID,96.8098,VALID,-0.0339617,VALID,17.849,VALID,185,VALID,1.22092
2000-06-07, 02:22:00,VALID,916.632,VALID,0,VALID,96.6216,VALID,-0.0169808,VALID,17.8363,VALID,184,VALID,1.28277
2000-06-07, 02:23:01,VALID,916.637,VALID,0,VALID,96.7017,VALID,-0.0679233,VALID,17.8492,VALID,213,VALID,1.38302
2000-06-07, 02:24:00,VALID,916.63,VALID,0,VALID,96.8874,VALID,-0.0679233,VALID,17.8688,VALID,226,VALID,0.78192
2000-06-07, 02:25:01,VALID,916.608,VALID,0,VALID,97.0222,VALID,-0.0509425,VALID,17.8785,VALID,215,VALID,1.11634
2000-06-07, 02:26:00,VALID,916.605,VALID,0,VALID,96.9637,VALID,0,VALID,17.869,VALID,211,VALID,1.38166
2000-06-07, 02:27:00,VALID,916.593,VALID,0,VALID,96.8696,VALID,-0.0169808,VALID,17.8526,VALID,183,VALID,1.02449
2000-06-07, 02:28:00,VALID,916.587,VALID,0,VALID,96.9522,VALID,-0.0169808,VALID,17.8688,VALID,196,VALID,0.891026
2000-06-07, 02:29:01,VALID,916.571,VALID,0,VALID,97.1201,VALID,-0.0169808,VALID,17.8819,VALID,169,VALID,0.512946
2000-06-07, 02:30:01,VALID,916.559,VALID,0,VALID,97.0336,VALID,-0.0339617,VALID,17.8824,VALID,169,VALID,1.08635
2000-06-07, 02:31:00,VALID,916.554,VALID,0,VALID,96.8441,VALID,-0.0679233,VALID,17.8563,VALID,167,VALID,1.04196
2000-06-07, 02:32:00,VALID,916.549,VALID,0,VALID,96.8009,VALID,-0.0679233,VALID,17.8634,VALID,181,VALID,1.00391
2000-06-07, 02:33:00,VALID,916.556,VALID,0,VALID,96.8861,VALID,-0.0679233,VALID,17.86,VALID,200,VALID,1.18728
2000-06-07, 02:34:00,VALID,916.546,VALID,0,VALID,96.8352,VALID,0,VALID,17.8363,VALID,186,VALID,1.21398
2000-06-07, 02:35:00,VALID,916.543,VALID,0,VALID,96.8162,VALID,-0.0339617,VALID,17.86,VALID,184,VALID,1.21752
2000-06-07, 02:36:01,VALID,916.547,VALID,0,VALID,97.0565,VALID,-0.0169808,VALID,17.8722,VALID,149,VALID,0.633898
2000-06-07, 02:37:00,VALID,916.555,VALID,0,VALID,97.2002,VALID,-0.0169808,VALID,17.8752,VALID,215,VALID,0.539497
2000-06-07, 02:38:01,VALID,916.578,VALID,0,VALID,97.4431,VALID,-0.0679233,VALID,17.8817,VALID,137,VALID,0
2000-06-07, 02:39:00,VALID,916.563,VALID,0,VALID,97.4164,VALID,-0.0169808,VALID,17.8817,VALID,153,VALID,0.292634
2000-06-07, 02:40:01,VALID,916.543,VALID,0,VALID,97.4164,VALID,0.0679233,VALID,17.8577,VALID,213,VALID,0.601351
2000-06-07, 02:41:00,VALID,916.549,VALID,0,VALID,97.321,VALID,0.0849042,VALID,17.8451,VALID,212,VALID,0.779642
2000-06-07, 02:42:00,VALID,916.528,VALID,0,VALID,97.3858,VALID,0.0169808,VALID,17.8455,VALID,193,VALID,0.301943
2000-06-07, 02:43:00,VALID,916.522,VALID,0,VALID,97.4138,VALID,0.0849042,VALID,17.8584,VALID,195,VALID,0.311298
2000-06-07, 02:44:01,VALID,916.526,VALID,0,VALID,97.2638,VALID,0.0509425,VALID,17.8324,VALID,209,VALID,1.25469
2000-06-07, 02:45:01,VALID,916.535,VALID,0,VALID,97.0743,VALID,0,VALID,17.8259,VALID,210,VALID,1.27076
2000-06-07, 02:46:00,VALID,916.555,VALID,0,VALID,97.0183,VALID,0.0169808,VALID,17.8229,VALID,232,VALID,0.847321
2000-06-07, 02:47:00,VALID,916.575,VALID,0,VALID,97.1061,VALID,0.101885,VALID,17.8418,VALID,216,VALID,0.661241
2000-06-07, 02:48:00,VALID,916.599,VALID,0,VALID,97.0069,VALID,0.0679233,VALID,17.8354,VALID,239,VALID,0.9898
2000-06-07, 02:49:01,VALID,916.611,VALID,0,VALID,97.0539,VALID,0.0509425,VALID,17.8386,VALID,205,VALID,0.390842
2000-06-07, 02:50:01,VALID,916.631,VALID,0,VALID,97.2739,VALID,0.0679233,VALID,17.8683,VALID,124,VALID,0.419819
2000-06-07, 02:51:01,VALID,916.622,VALID,0,VALID,97.4748,VALID,0.0509425,VALID,17.8942,VALID,119,VALID,0.0998264
2000-06-07, 02:52:00,VALID,916.618,VALID,0,VALID,97.6656,VALID,0.0849042,VALID,17.9138,VALID,119,VALID,0
2000-06-07, 02:53:01,VALID,916.597,VALID,0,VALID,97.7495,VALID,0.0679233,VALID,17.9131,VALID,150,VALID,0.100123
2000-06-07, 02:54:01,VALID,916.584,VALID,0,VALID,97.6376,VALID,0.0169808,VALID,17.9041,VALID,179,VALID,0.460938
2000-06-07, 02:55:01,VALID,916.581,VALID,0,VALID,97.2612,VALID,0.0339617,VALID,17.8384,VALID,223,VALID,1.02808
2000-06-07, 02:56:01,VALID,916.544,VALID,0,VALID,97.3312,VALID,0.0679233,VALID,17.839,VALID,231,VALID,0.910846
2000-06-07, 02:57:00,VALID,916.523,VALID,0,VALID,97.4392,VALID,0.0509425,VALID,17.8457,VALID,225,VALID,0.888725
2000-06-07, 02:58:01,VALID,916.509,VALID,0,VALID,97.5232,VALID,0.0849042,VALID,17.839,VALID,225,VALID,1.0599
2000-06-07, 02:59:01,VALID,916.482,VALID,0,VALID,97.4927,VALID,0.0509425,VALID,17.813,VALID,218,VALID,1.39152
2000-06-07, 03:00:01,VALID,916.465,VALID,0,VALID,97.4939,VALID,0.0339617,VALID,17.81,VALID,226,VALID,1.55469
2000-06-07, 03:01:00,VALID,916.461,VALID,0,VALID,97.3566,VALID,0.0339617,VALID,17.7837,VALID,221,VALID,1.80938
2000-06-07, 03:02:01,VALID,916.467,VALID,0,VALID,97.2752,VALID,0.0509425,VALID,17.7876,VALID,222,VALID,1.97852
2000-06-07, 03:03:00,VALID,916.476,VALID,0,VALID,97.1989,VALID,0.0849042,VALID,17.7839,VALID,220,VALID,2.2691
2000-06-07, 03:04:01,VALID,916.477,VALID,0,VALID,97.1302,VALID,0.0849042,VALID,17.7772,VALID,227,VALID,1.65712
2000-06-07, 03:05:01,VALID,916.463,VALID,0,VALID,97.1964,VALID,0.0509425,VALID,17.8005,VALID,228,VALID,1.66468
2000-06-07, 03:06:01,VALID,916.456,VALID,0,VALID,97.2154,VALID,0.0509425,VALID,17.7906,VALID,234,VALID,1.42622
2000-06-07, 03:07:01,VALID,916.442,VALID,0,VALID,97.2345,VALID,0.0679233,VALID,17.7945,VALID,235,VALID,1.0599
2000-06-07, 03:08:01,VALID,916.441,VALID,0,VALID,97.2841,VALID,0.0339617,VALID,17.7775,VALID,248,VALID,0.753906
2000-06-07, 03:09:01,VALID,916.448,VALID,0,VALID,97.1341,VALID,0.0169808,VALID,17.7583,VALID,214,VALID,1.2692
2000-06-07, 03:10:01,VALID,916.437,VALID,0,VALID,96.9751,VALID,0,VALID,17.7525,VALID,208,VALID,0.798142
2000-06-07, 03:11:01,VALID,916.42,VALID,0,VALID,96.9192,VALID,0,VALID,17.759,VALID,211,VALID,1.13626
2000-06-07, 03:12:01,VALID,916.412,VALID,0,VALID,96.7615,VALID,0.0169808,VALID,17.7661,VALID,220,VALID,0.844595
2000-06-07, 03:13:01,VALID,916.413,VALID,0,VALID,96.6788,VALID,0,VALID,17.7532,VALID,224,VALID,1.17428
2000-06-07, 03:14:01,VALID,916.398,VALID,0,VALID,96.586,VALID,0,VALID,17.7689,VALID,195,VALID,1.10871
2000-06-07, 03:15:01,VALID,916.378,VALID,0,VALID,96.7577,VALID,0,VALID,17.7947,VALID,102,VALID,0.788651
2000-06-07, 03:16:01,VALID,916.362,VALID,0,VALID,96.9827,VALID,0,VALID,17.8143,VALID,100,VALID,0.73125
2000-06-07, 03:17:01,VALID,916.358,VALID,0,VALID,97.0565,VALID,-0.0169808,VALID,17.8107,VALID,95,VALID,1.3431
2000-06-07, 03:18:01,VALID,916.349,VALID,0,VALID,97.1442,VALID,0.0169808,VALID,17.8111,VALID,91,VALID,1.09006
2000-06-07, 03:19:01,VALID,916.357,VALID,0,VALID,97.2243,VALID,-0.0169808,VALID,17.8012,VALID,100,VALID,1.21571
2000-06-07, 03:20:01,VALID,916.36,VALID,0,VALID,97.3757,VALID,0,VALID,17.8014,VALID,95,VALID,1.19531
2000-06-07, 03:21:01,VALID,916.363,VALID,0,VALID,97.4965,VALID,-0.0169808,VALID,17.792,VALID,95,VALID,0.91862
2000-06-07, 03:22:01,VALID,916.366,VALID,0,VALID,97.6898,VALID,0,VALID,17.7917,VALID,88,VALID,0.967882
2000-06-07, 03:23:00,VALID,916.375,VALID,0,VALID,97.7406,VALID,-0.0509425,VALID,17.7758,VALID,111,VALID,0.931538
2000-06-07, 03:24:00,VALID,916.363,VALID,0,VALID,97.7597,VALID,0,VALID,17.7663,VALID,96,VALID,0.971652
2000-06-07, 03:25:00,VALID,916.369,VALID,0,VALID,97.85,VALID,0,VALID,17.776,VALID,94,VALID,0.853463
2000-06-07, 03:26:00,VALID,916.383,VALID,0,VALID,97.9504,VALID,-0.0169808,VALID,17.7659,VALID,115,VALID,0.78102
2000-06-07, 03:27:00,VALID,916.391,VALID,0,VALID,97.9581,VALID,-0.0169808,VALID,17.7528,VALID,107,VALID,0.880279
2000-06-07, 03:28:00,VALID,916.404,VALID,0,VALID,97.967,VALID,0,VALID,17.7368,VALID,108,VALID,0.988381
2000-06-07, 03:29:00,VALID,916.415,VALID,0,VALID,97.9212,VALID,0,VALID,17.7334,VALID,119,VALID,1.01652
2000-06-07, 03:30:00,VALID,916.413,VALID,0,VALID,97.9085,VALID,0,VALID,17.75,VALID,123,VALID,0.960938
2000-06-07, 03:31:00,VALID,916.417,VALID,0,VALID,97.8805,VALID,0,VALID,17.7599,VALID,134,VALID,0.919866
2000-06-07, 03:32:00,VALID,916.43,VALID,0,VALID,97.8881,VALID,0,VALID,17.7592,VALID,144,VALID,0.861545
2000-06-07, 03:33:00,VALID,916.439,VALID,0,VALID,97.8118,VALID,0.0169808,VALID,17.7629,VALID,137,VALID,1.0727
2000-06-07, 03:34:00,VALID,916.438,VALID,0,VALID,97.8207,VALID,-0.0169808,VALID,17.756,VALID,131,VALID,0.845703
2000-06-07, 03:35:00,VALID,916.446,VALID,0,VALID,97.8652,VALID,-0.0169808,VALID,17.7721,VALID,126,VALID,0.943257